Location: Newark
(14.1000°N, 87.2167°W)
Time: 05:55:54
(UTC+00:00)

N. Korean satellite - Visible Passes

Search period start: 16 July 2019 00:00
Search period end: 26 July 2019 00:00
Orbit: 456 x 508 km, 97.2° (Epoch: 15 July)

Date Brightness Start Highest point End Pass type
(mag) Time Alt. Az. Time Alt. Az. Time Alt. Az.
16 Jul 9.0 11:04:41 10° NE 11:07:51 27° E 11:11:01 10° SSE visible
17 Jul 9.9 10:41:38 10° E 10:42:45 11° E 10:43:51 10° ESE visible
20 Jul 9.4 10:57:58 10° NE 11:00:50 21° E 11:03:42 10° SSE visible
24 Jul 9.6 10:51:20 10° ENE 10:53:47 17° E 10:56:13 10° SE visible
